This demonstration page uses our WeatherBlox Daily Observations layout. Learn more.

Left ArrowRight Arrow

36.17497, -115.13722

Hourly Observations for August 9, 2022

Temp ( °F °C ) Dew Point ( °F °C ) Humidity (%) Winds ( mph kmh ) Pressure ( in mb ) Visibility ( mi km ) Precip ( " mm )
12:53 am 00:53 Clear 93 33.9 58 14.4 31 31 S 5 7 29.87 1012 10 16 0.00 0.00
1:53 am 01:53 Clear 93 33.9 58 14.4 31 31 S 6 9 29.85 1011 10 16 0.00 0.00
2:53 am 02:53 Clear 92 33.3 58 14.4 32 32 SE 8 13 29.86 1011 10 16 0.00 0.00
3:53 am 03:53 Clear 91 32.8 58 14.4 33 33 SE 10 17 29.87 1012 10 16 0.00 0.00
4:53 am 04:53 Clear 90 32.2 60 15.6 37 37 SE 9 15 29.89 1012 10 16 0.00 0.00
5:53 am 05:53 Clear 89 31.7 60 15.6 38 38 ESE 7 11 29.90 1013 10 16 0.00 0.00
6:53 am 06:53 Sunny 88 31.1 60 15.6 39 39 ESE 8 13 29.93 1014 10 16 0.00 0.00
7:53 am 07:53 Sunny 89 31.7 59 15 36 36 ESE 8 13 29.95 1014 10 16 0.00 0.00
8:53 am 08:53 Partly Cloudy 91 32.8 58 14.4 33 33 ESE 10 17 29.96 1015 10 16 0.00 0.00
9:53 am 09:53 Sunny 93 33.9 59 15 32 32 E 3 6 29.95 1014 10 16 0.00 0.00
10:53 am 10:53 Sunny 94 34.4 58 14.4 30 30 SE 7 11 29.95 1014 10 16 0.00 0.00
11:53 am 11:53 Sunny 96 35.6 59 15 29 29 ESE 10 17 29.94 1014 10 16 0.00 0.00
12:53 pm 12:53 Sunny 96 35.6 60 15.6 30 30 ESE 17 28 29.93 1013 10 16 0.00 0.00
1:53 pm 13:53 Sunny 96 35.6 59 15 29 29 E 16 26 29.90 1013 10 16 0.00 0.00
2:53 pm 14:53 Sunny 96 35.6 60 15.6 30 30 E 10 17 29.88 1012 10 16 0.00 0.00
3:53 pm 15:53 Mostly Sunny 95 35 60 15.6 32 32 SSW 14 22 29.88 1012 10 16 0.00 0.00
4:53 pm 16:53 Sunny 95 35 60 15.6 32 32 S 13 20 29.87 1011 10 16 0.00 0.00
5:53 pm 17:53 Sunny 92 33.3 61 16.1 36 36 S 12 19 29.86 1011 10 16 0.00 0.00
6:53 pm 18:53 Sunny 91 32.8 60 15.6 36 36 S 14 22 29.89 1012 10 16 0.00 0.00
7:53 pm 19:53 Clear 89 31.7 60 15.6 38 38 SSE 12 19 29.91 1013 10 16 0.00 0.00
8:53 pm 20:53 Clear 88 31.1 60 15.6 39 39 SSE 9 15 29.92 1013 10 16 0.01 0.13
9:53 pm 21:53 Partly Cloudy 88 31.1 61 16.1 41 41 ESE 5 7 29.94 1014 10 16 0.00 0.00
10:53 pm 22:53 Clear 88 31.1 62 16.7 42 42 Calm 29.94 1014 10 16 0.00 0.00
11:53 pm 23:53 Clear 87 30.6 63 17.2 45 45 SE 7 11 29.96 1015 10 16 0.01 0.13

Powered by AerisWeather